Regional Weather Roundup
Issued by NWS

Home | Current Version | Previous Version | Text Only | Print | Product List | Glossary Off
Versions: 1 2 3 4 5 6 7 8 9 10 11 12 13 14 15 16 17 18 19 20 21 22 23 24 25 26 27 28 29 30 31 32 33 34 35 36 37 38 39 40 41 42 43 44 45 46 47 48 49 50

000
ASUS43 KLMK 080410
RWRKY
KENTUCKY REGIONAL WEATHER ROUNDUP
NATIONAL WEATHER SERVICE LOUISVILLE KY
1100 PM EST WED DEC 07 2016

NOTE "FAIR" INDICATES FEW OR NO CLOUDS BELOW 12,000 FEET
WITH NO SIGNIFICANT WEATHER AND/OR OBSTRUCTIONS TO VISIBILITY.

KYZ001>023-026-027-061>063-070>075-080500-
WESTERN AND SOUTH CENTRAL KENTUCKY

CITY           SKY/WX    TMP DP  RH WIND       PRES   REMARKS
PADUCAH        CLOUDY    37  21  52 N9        30.28R WCI  30
HENDERSON      CLOUDY    36  21  55 NW9       30.26R WCI  29
OWENSBORO      CLOUDY    35  26  69 NW8       30.25R WCI  29
HOPKINSVILLE   PTCLDY    37  22  53 N6        30.24R WCI  33
BOWLING GREEN  CLOUDY    37  22  54 VRB6      30.22S WCI  32
GLASGOW        PTCLDY    35  24  65 N6        30.20S WCI  30
$$

KYZ024-025-028>034-038-045-046-053-080500-
NORTH CENTRAL KENTUCKY

CITY           SKY/WX    TMP DP  RH WIND       PRES   REMARKS
LOUISVILLE/SDF CLOUDY    36  20  52 NW9       30.20S WCI  29
LOUISVILLE/LOU MOCLDY    37  21  52 NW9       30.21S WCI  30
FORT KNOX      CLOUDY    34  23  64 NW6       30.18S WCI  29
$$

KYZ035>037-039>044-047>052-055>060-089>105-080500-
NORTHEAST KENTUCKY

CITY           SKY/WX    TMP DP  RH WIND       PRES   REMARKS
LEXINGTON      CLOUDY    36  23  59 NW5       30.17R WCI  32
COVINGTON      CLOUDY    34  24  67 W10       30.16R WCI  26
FRANKFORT      CLOUDY    36  22  56 W3        30.17S
$$

KYZ054-064>069-076>088-106>120-080500-
SOUTHEAST KENTUCKY

CITY           SKY/WX    TMP DP  RH WIND       PRES   REMARKS
JACKSON        CLOUDY    36  23  59 NW6       30.13R WCI  31
LONDON         PTCLDY    35  24  64 CALM      30.15R
SOMERSET       CLOUDY    34  27  75 CALM      30.20R
MIDDLESBORO    CLOUDY    38  34  86 CALM      30.14S
MONTICELLO     PTCLDY    34  27  75 N8        30.20R WCI  27
$$




USA.gov is the U.S. government's official web portal to all federal, state and local government web resources and services.